铱星星座 112星 (IRIDIUM 112)

导读

IRIDIUM 112(铱星112)是美国铱星星座第二代的组网卫星,于北京时间2017年1月14日,由SpaceX猎鹰9号火箭在范登堡太空军基地以一箭十星方式发射入轨。它运行在近地轨道,属于全球低轨移动通信卫星系统,提供全球语音、数据通信服务,设计寿命10年,支撑铱星系统对偏远、特殊区域的通信覆盖能力。

基本信息
目录编号:
41925
目录名称:
IRIDIUM 112
国际标识:
2017-003J
轨道中心:
EARTH
卫星名称:
铱星星座 112星
卫星全名:
铱星星座 112星 (IRIDIUM 112)
卫星状态:
在轨 (已飞行3527 天)
发射日期:
2017-01-14 UTC
国别 :
美国 (US)
星等 :
--
轨道信息
数据来源 国际轨道数据 AOE轨道数据
星历时间 2026-09-10T20:43:30+0800
14小时前
查看轨道信息
2026-09-05T10:00:00+0800
6天前
查看轨道信息
半长轴 7155.807km 7155.806km
偏心率 0.0002171 0.0002242
轨道倾角 86.393° 86.391°
近地点辐角 92.767° 82.182°
升交点赤经 52.593° 54.871°
平近点角 267.377° 252.509°
近地点 776.116km 776.064km
远地点 779.224km 779.274km
周期 100.403分钟 100.403分钟
每日圈数 14.342171 14.342173
详细信息
平衡模式:
三轴稳定
覆盖范围:
全球
运营商:
铱星通信公司
运营商所在国:
美国
制造商(研发单位):
阿莱尼亚宇航公司
制造商所在国:
意大利
使用方式:
暂无
卫星简介
铱星(Iridium)是由共66个运作中的通信卫星组成的卫星通信系统。这个系统原本规划77个通信卫星,所以用原子序数为77的铱元素来命名。铱卫星允许人们使用手持型电子设备进行全球性的语音及数据通讯。该卫星仍在工作。
2D轨道图
3D轨道图
轨道高度分析图
轨道倾角分析图
轨道综合分析图
查看轨道综合分析图
交会数据列表
事件ID 空间交会对象 最接近时刻(TCA) 交会距离 交会风险概率(CRP) 交会风险指数(CRI) 操作
CDM_260912-134402-282704-192523
2026-09-12T
13:44:33+0000
1.533 km
极远距离
4.928941E-6 低风险 0.49
CDM_260906-043202-906904-192527
2026-09-06T
04:32:04+0000
2.043 km
极远距离
2.096881E-6 低风险 0.41
CDM_260911-233403-070904-192525
2026-09-11T
23:34:12+0000
2.888 km
极远距离
1.403331E-6 低风险 0.38
与全量物体交会距离演化趋势
与全量物体交会风险概率演化趋势